Tracking 18032 objects as of 27-March-2017
HD Live streaming from Space Station
objects crossing your sky now

HELIOS-2A

Track HELIOS-2A now!
10-day predictions
HELIOS-2A is classified as:


NORAD ID: 28492
Int'l Code: 2004-049A
Perigee: 686.1 km
Apogee: 691.8 km
Inclination: 98.1 °
Period: 98.4 minutes
Semi major axis: 7059 km
RCS: Unknown
Launch date: December 18, 2004
Source: France (FR)
Launch site: FRENCH GUIANA (FRGUI)

Optical reconnaissance; independent military intelligence capability for the EU.
Your satellite tracking list
Your tracking list is empty





NASA's NSSDC Master Catalog

Two Line Element Set (TLE):
1 28492U 04049A   17085.07336753 0.00000000  00000-0  00000-0 0    00
2 28492  98.1475  22.8913 0004000 243.4517 116.5481 14.63533213    03
Source of the keplerian elements: McCants